User: anonymous   Login
Location: Sungai Anya
(2.6167°N, 114.0500°E)
Time: 03:40:31
(UTC+00:00)
Language:

Cosmos 1153 Rocket - Orbit

View from above orbital plane
View from above orbital plane
View from above satellite
View from above satellite

Ground track
Ground track

The orbit data is extracted from the following two-line orbital elements,

1 11681U 80007B   22026.63816411  .00000124  00000-0  11322-3 0  9993
2 11681  82.9289 243.6410 0035710 329.7348  82.8135 13.75473196103927
Epoch (UTC): 26 January 2022 15:18:57
Eccentricity: 0.0035710
inclination: 82.9289°
perigee height: 954 km
apogee height: 1006 km
right ascension of ascending node: 243.6410°
argument of perigee: 329.7348°
revolutions per day: 13.75473196
mean anomaly at epoch: 82.8135°
orbit number at epoch: 10392

The dashed part of the orbit path shows where the satellite is in the earth's shadow,  

DLR